This is the latest recevied weather packets stored in our database for station/object ANJALA. If no packets are shown the sender has not sent any weather packets the latest 10 day(s).
| Time | Temp. | Humidity | Pressure | Rain* | Wind** | Luminosity | Snow |
|---|---|---|---|---|---|---|---|
| 1788428679 | 17.78° C | 68% | - | 0 mm | - | - | - |
| 1788427479 | 16.67° C | 73% | - | 0 mm | - | - | - |
| 1788426277 | 16.67° C | 76% | - | 0 mm | - | - | - |
| 1788425078 | 16.67° C | 81% | - | 0 mm | - | - | - |
| 1788423878 | 16.67° C | 84% | - | 0 mm | - | - | - |
| 1788422680 | 16.67° C | 81% | - | 0 mm | - | - | - |
| 1788421478 | 16.67° C | 85% | - | 0 mm | - | - | - |
| 1788420278 | 16.11° C | 87% | - | 0 mm | - | - | - |
| 1788417878 | 16.11° C | 88% | - | 0 mm | - | - | - |
| 1788416676 | 16.11° C | 90% | - | 0 mm | - | - | - |
| 1788414276 | 14.44° C | 99% | - | 0 mm | - | - | - |
| 1788413077 | 13.89° C | 100% | - | 0 mm | - | - | - |
| 1788411876 | 13.33° C | 100% | - | 0 mm | - | - | - |
| 1788410676 | 12.22° C | 100% | - | 0 mm | - | - | - |
| 1788408276 | 11.67° C | 100% | - | 0 mm | - | - | - |
| 1788406866 | 11.67° C | 100% | - | 0 mm | - | - | - |
| 1788405666 | 11.67° C | 100% | - | 0 mm | - | - | - |
| 1788404675 | 11.11° C | 100% | - | 0 mm | - | - | - |
| 1788403488 | 11.11° C | 99% | - | 0 mm | - | - | - |
| 1788402277 | 11.11° C | 99% | - | 0 mm | - | - | - |
| 1788399877 | 12.78° C | 99% | - | 0 mm | - | - | - |
| 1788398677 | 12.22° C | 100% | - | 0 mm | - | - | - |
| 1788396277 | 12.22° C | 99% | - | 0 mm | - | - | - |
| 1788395077 | 12.78° C | 99% | - | 0 mm | - | - | - |
| 1788393876 | 12.78° C | 99% | - | 0 mm | - | - | - |
* Rain latest hour (hover to see other rain measurements)
** Current wind speed in m/s (hover to see current wind gust speed)